This is the latest recevied weather packets stored in our database for station/object DH5DY-6. If no packets are shown the sender has not sent any weather packets the latest 10 day(s).
| Time | Temp. | Humidity | Pressure | Rain* | Wind** | Luminosity | Snow |
|---|---|---|---|---|---|---|---|
| 1777485479 | 14.44° C | 31% | 1023.9 hPa | 0 mm | - | 70 W/m² | - |
| 1777484878 | 15° C | 30% | 1023.9 hPa | 0 mm | - | 97 W/m² | - |
| 1777484278 | 15° C | 29% | 1023.8 hPa | 0 mm | - | 123 W/m² | - |
| 1777483678 | 15.56° C | 29% | 1023.7 hPa | 0 mm | - | 149 W/m² | - |
| 1777483078 | 15.56° C | 29% | 1023.6 hPa | 0 mm | - | 181 W/m² | - |
| 1777482478 | 16.11° C | 30% | 1023.5 hPa | 0 mm | - | 209 W/m² | - |
| 1777481879 | 16.67° C | 30% | 1023.5 hPa | 0 mm | - | 237 W/m² | - |
| 1777481278 | 16.11° C | 29% | 1023.4 hPa | 0 mm | - | 265 W/m² | - |
| 1777480678 | 16.11° C | 30% | 1023.2 hPa | 0 mm | - | 290 W/m² | - |
| 1777480078 | 16.67° C | 28% | 1023.2 hPa | 0 mm | - | 320 W/m² | - |
| 1777479478 | 16.67° C | 29% | 1023.2 hPa | 0 mm | - | 341 W/m² | - |
| 1777478278 | 16.67° C | 28% | 1023 hPa | 0 mm | - | 397 W/m² | - |
| 1777477678 | 17.22° C | 28% | 1023.1 hPa | 0 mm | - | 425 W/m² | - |
| 1777476477 | 17.22° C | 29% | 1023 hPa | 0 mm | - | 468 W/m² | - |
| 1777475877 | 17.22° C | 29% | 1023 hPa | 0 mm | - | 490 W/m² | - |
| 1777475278 | 17.22° C | 27% | 1023.1 hPa | 0 mm | - | 513 W/m² | - |
| 1777474678 | 17.22° C | 28% | 1023.2 hPa | 0 mm | - | 536 W/m² | - |
| 1777474078 | 17.22° C | 27% | 1023 hPa | 0 mm | - | 561 W/m² | - |
| 1777473477 | 17.78° C | 27% | 1023 hPa | 0 mm | - | 578 W/m² | - |
| 1777472877 | 17.22° C | 27% | 1023.1 hPa | 0 mm | - | 599 W/m² | - |
| 1777472277 | 17.22° C | 27% | 1023.1 hPa | 0 mm | - | 617 W/m² | - |
| 1777466878 | 16.67° C | 28% | 1023.2 hPa | 0 mm | - | 751 W/m² | - |
| 1777465678 | 16.67° C | 29% | 1023.2 hPa | 0 mm | - | 763 W/m² | - |
| 1777465078 | 16.67° C | 30% | 1023 hPa | 0 mm | - | 770 W/m² | - |
| 1777463277 | 15.56° C | 32% | 1023 hPa | 0 mm | - | 779 W/m² | - |
* Rain latest hour (hover to see other rain measurements)
** Current wind speed in m/s (hover to see current wind gust speed)